Regional Weather Roundup
Issued by NWS

Home | Current Version | Previous Version | Graphics & Text | Print | Product List | Glossary On
Versions: 1 2 3 4 5 6 7 8 9 10 11 12 13 14 15 16 17 18 19 20 21 22 23 24 25 26 27
000
ASUS45 KBOU 230907
RWRCO

WEATHER ROUNDUP FOR COLORADO
NATIONAL WEATHER SERVICE DENVER/BOULDER CO
300 AM MDT SUN JUL 23 2017

NOTE: "FAIR" INDICATES FEW OR NO CLOUDS BELOW 12000 FEET WITH NO
SIGNIFICANT WEATHER AND/OR OBSTRUCTIONS TO VISIBILITY.

COZ001>005-013-030-031-231000-
...NORTHWEST COLORADO...

CITY           SKY/WX    TMP DP  RH WIND       PRES   REMARKS
CRAIG          FAIR      49  43  80 CALM      30.25S
HAYDEN         FAIR      55  34  44 E9        30.28R
MEEKER         FAIR      55  40  56 E8        30.26F
RABBIT EARS PA FAIR      55  32  41 E6        30.59S
STEAMBOAT SPGS FAIR      51  39  62 CALM      30.31S
WALDEN         FAIR      41  34  75 SE8       30.43S
$$

COZ006>008-011-231000-
...WEST CENTRAL VALLEYS...

CITY           SKY/WX    TMP DP  RH WIND       PRES   REMARKS
GRAND JUNCTION FAIR      73  50  44 E16       30.12S
MONTROSE       FAIR      63  46  54 SE3       30.23F
EAGLE          FAIR      55  46  71 E3        30.33S
RIFLE          FAIR      62  42  47 CALM      30.20S
DELTA          FAIR      66  49  54 CALM      30.19S
NUCLA          FAIR      63  45  51 E8        30.25F
$$

COZ017>023-064>068-231000-
...SOUTHWEST COLORADO...

CITY           SKY/WX    TMP DP  RH WIND       PRES   REMARKS
DURANGO        CLOUDY    60  52  74 CALM      30.28S
CORTEZ         FAIR      58  54  86 N5        30.21F
PAGOSA SPRINGS FAIR      61  46  58 CALM      30.36F
TELLURIDE      FAIR      53  43  68 SE7       30.47S
WOLF CREEK PAS FAIR      46  36  66 CALM      30.70S
$$

COZ009-010-012-014-032>034-037-058>063-231000-
...CENTRAL COLORADO...

CITY           SKY/WX    TMP DP  RH WIND       PRES   REMARKS
ASPEN          FAIR      56  44  64 SW7       30.36F
BUENA VISTA    FAIR      55  48  75 NW12      30.42S
COPPER MTN     FAIR      54  32  43 S5        30.69F
BERTHOUD PASS  FAIR      45  32  61 S9        30.74S
COTTONWOOD PAS FAIR      57  39  51 NW3       30.54S
GUNNISON       NOT AVBL
KREMMLING      FAIR      54  41  62 CALM      30.39S
LEADVILLE      FAIR      42  40  92 N6        30.53F
MONARCH PASS   FAIR      48  36  61 NE9       30.77F
SALIDA         FAIR      55  50  84 CALM      30.47S
SUNLIGHT       FAIR      52  32  46 E5        30.62S
WILKERSON PASS FAIR      50  36  57 CALM      30.67S
$$

COZ069>075-231000-
...SAN LUIS VALLEY/SANGRE DE CRISTO MOUNTAINS...

CITY           SKY/WX    TMP DP  RH WIND       PRES   REMARKS
ALAMOSA        FAIR      56  54  93 CALM      30.36F
DEL NORTE      FAIR      55  49  80 W9        30.39F
LA VETA PASS   NOT AVBL
SAGUACHE         N/A    N/A N/A N/A MISG        N/A
$$

COZ035-036-038>040-231000-
...NORTHERN COLORADO FRONT RANGE...

CITY           SKY/WX    TMP DP  RH WIND       PRES   REMARKS
DENVER INTL AP FAIR      65  54  67 SW9       30.18F
DMNS CITY PARK   N/A     67  52  58 NW6       30.19F
AURORA         PTCLDY    65  53  64 SW6       30.22S
FRONT RANGE AP FAIR      68  55  64 S10G21    30.20F
ERIE MUNI ARPT FAIR      62  55  75 CALM      30.18S
BOULDER MUN AP FAIR      66  50  55 S3        30.19F
CENTENNIAL     FAIR      68  51  54 NW6       30.23S
BROOMFIELD     FAIR      63  50  63 W3        30.22S
FORT COLLINS   FAIR      63  53  70 N7        30.18S
LONGMONT       FAIR      66  51  59 CALM      30.20S
$$

COZ041-046-047-076>085-087-088-231000-
...PIKES PEAK/PALMER DIVIDE AND SOUTHERN FOOTHILLS...

CITY           SKY/WX    TMP DP  RH WIND       PRES   REMARKS
COLO. SPRINGS  CLOUDY    66  58  75 CALM      30.27F
A. F. ACADEMY  FAIR      61  53  74 CALM      30.28S
SCHRIEVER AFB  FAIR      62  52  69 N3        30.27F
CHEYENNE MTN   MOCLDY    63  52  66 S3        30.27F
ELLICOTT       FAIR     N/A N/A N/A SE8       30.24F
FALCON           N/A     61  51  68 W7        30.32F
FORT CARSON    FAIR      62  55  78 W3        30.24F
LIMON          FAIR      58  55  90 CALM      30.21F
MONUMENT HILL  FAIR      55  52  88 SW7       30.32F
CANON CITY     CLEAR     66  55  68 NW13      30.21S
WALSENBURG     FAIR      59  54  82 SW7       30.25S
TRINIDAD       FAIR      61  52  72 W6        30.23F
$$

COZ042>045-048>051-090-091-231000-
...NORTHEAST COLORADO...

CITY           SKY/WX    TMP DP  RH WIND       PRES   REMARKS
GREELEY ARPT   FAIR      62  56  80 N6        30.16S
AKRON          FAIR      66  47  50 S8        30.16F
BURLINGTON     FAIR      59  55  87 W8        30.14F
WRAY           NOT AVBL
YUMA           FAIR      59  52  77 SW3       30.13S
STERLING       FAIR      63  59  88 CALM      30.12S
HOLYOKE        FAIR      59  54  82 CALM      30.11F
FORT MORGAN    FAIR      63  51  66 CALM      30.15F
$$

COZ086-089-092>099-231000-
...SOUTHEAST COLORADO...

CITY           SKY/WX    TMP DP  RH WIND       PRES   REMARKS
PUEBLO         FAIR      68  53  58 NE7       30.16R
LA JUNTA       FAIR      67  53  61 SE5       30.13F
LAMAR          FAIR      61  56  83 S3        30.09F
SPRINGFIELD      N/A     61  58  90 NW7       30.13F
$$




USA.gov is the U.S. government's official web portal to all federal, state and local government web resources and services.